When you browse on this site, cookies collect data to enhance your experience and personalize the content and advertising you see.
Visit our Privacy Policy to learn more. By continuing to use the site, you agree to this use of cookies and data.
  • In Hungary
  • List of Countries
  • For 7 days
  • Water Temperature
  • Satellite Maps
  • Weather Map
  • News
  • Weather Widgets
  • user-avatar
    Login

    Hourly Weather Kyuryag

    Today, 19 November, Monday

    Time Temperature Precipitation Wind Pressure Humidity
    00:00 +2°C° 0 mm 1 mps 669 mmHg 71%
    01:00 +2°C° 0 mm 1 mps 669 mmHg 70%
    02:00 +2°C° 0 mm 1 mps 669 mmHg 69%
    03:00 +2°C° 0 mm 1 mps 668 mmHg 70%
    04:00 +2°C° 0 mm 1 mps 669 mmHg 69%
    05:00 +2°C° 0 mm 1 mps 669 mmHg 68%
    06:00 +1°C° 0 mm 1 mps 669 mmHg 67%
    07:00 +2°C° 0 mm 1 mps 669 mmHg 63%
    08:00 +3°C° 0 mm 1 mps 669 mmHg 59%
    09:00 +5°C° 0 mm 1 mps 670 mmHg 57%
    10:00 +4°C° 0 mm 2 mps 670 mmHg 57%
    11:00 +5°C° 0 mm 2 mps 670 mmHg 57%
    12:00 +5°C° 0 mm 2 mps 670 mmHg 56%
    13:00 +5°C° 0 mm 2 mps 670 mmHg 59%
    14:00 +5°C° 0 mm 2 mps 670 mmHg 62%
    15:00 +5°C° 0 mm 1 mps 670 mmHg 67%
    16:00 +4°C° 0 mm 1 mps 670 mmHg 67%
    17:00 +4°C° 0 mm 1 mps 670 mmHg 68%
    18:00 +3°C° 0 mm 1 mps 670 mmHg 68%
    19:00 +3°C° 0 mm 1 mps 670 mmHg 65%
    20:00 +2°C° 0 mm 2 mps 669 mmHg 61%
    21:00 +2°C° 0 mm 2 mps 669 mmHg 58%
    22:00 +2°C° 0 mm 2 mps 669 mmHg 55%
    23:00 +2°C° 0 mm 2 mps 669 mmHg 53%

    Tomorrow, 20 November, Tuesday

    Time Temperature Precipitation Wind Pressure Humidity
    00:00 +1°C° 0 mm 3 mps 668 mmHg 50%
    01:00 +1°C° 0 mm 3 mps 668 mmHg 49%
    02:00 +1°C° 0 mm 3 mps 668 mmHg 47%
    03:00 +2°C° 0 mm 3 mps 668 mmHg 46%
    04:00 +2°C° 0 mm 3 mps 667 mmHg 46%
    05:00 +2°C° 0 mm 3 mps 667 mmHg 45%
    06:00 +2°C° 0 mm 3 mps 667 mmHg 45%
    07:00 +5°C° 0 mm 2 mps 667 mmHg 44%
    08:00 +6°C° 0 mm 2 mps 667 mmHg 42%
    09:00 +9°C° 0 mm 1 mps 667 mmHg 41%
    10:00 +10°C° 0 mm 1 mps 666 mmHg 41%
    11:00 +11°C° 0 mm 1 mps 666 mmHg 42%
    12:00 +12°C° 0 mm 1 mps 666 mmHg 42%
    13:00 +12°C° 0 mm 1 mps 665 mmHg 45%
    14:00 +11°C° 0 mm 1 mps 665 mmHg 49%
    15:00 +11°C° 0 mm 1 mps 664 mmHg 52%
    16:00 +9°C° 0 mm 2 mps 664 mmHg 57%
    17:00 +8°C° 0 mm 3 mps 664 mmHg 61%
    18:00 +5°C° 0 mm 3 mps 664 mmHg 65%
    19:00 +5°C° 0 mm 3 mps 664 mmHg 64%
    20:00 +5°C° 0 mm 3 mps 664 mmHg 62%
    21:00 +5°C° 0 mm 3 mps 664 mmHg 61%
    22:00 +5°C° 0 mm 3 mps 663 mmHg 62%
    23:00 +6°C° 0 mm 2 mps 663 mmHg 62%

    Day after tomorrow, 21 November, Wednesday

    Time Temperature Precipitation Wind Pressure Humidity
    00:00 +6°C° 0 mm 2 mps 663 mmHg 63%
    01:00 +4°C° 0 mm 3 mps 663 mmHg 66%
    02:00 +4°C° 0 mm 3 mps 663 mmHg 70%
    03:00 +3°C° 0 mm 3 mps 663 mmHg 74%
    04:00 +3°C° 0 mm 3 mps 663 mmHg 75%
    05:00 +3°C° 0 mm 3 mps 663 mmHg 75%
    06:00 +3°C° 0 mm 2 mps 663 mmHg 76%
    07:00 +4°C° 0 mm 2 mps 664 mmHg 72%
    08:00 +5°C° 0 mm 2 mps 664 mmHg 68%
    09:00 +6°C° 0 mm 2 mps 665 mmHg 65%
    10:00 +7°C° 0 mm 3 mps 664 mmHg 63%
    11:00 +7°C° 0 mm 3 mps 664 mmHg 62%
    12:00 +7°C° 0 mm 4 mps 664 mmHg 61%
    13:00 +6°C° 0 mm 4 mps 664 mmHg 66%
    14:00 +5°C° 0 mm 4 mps 664 mmHg 70%
    15:00 +4°C° 0 mm 4 mps 664 mmHg 75%
    16:00 +4°C° 0 mm 3 mps 664 mmHg 79%
    17:00 +3°C° 0 mm 3 mps 664 mmHg 83%
    18:00 +3°C° 0 mm 2 mps 664 mmHg 87%
    19:00 +3°C° 0.2 mm 2 mps 664 mmHg 87%
    20:00 +3°C° 0.2 mm 2 mps 664 mmHg 88%
    21:00 +3°C° 0.2 mm 2 mps 664 mmHg 89%
    22:00 +3°C° 0.2 mm 2 mps 664 mmHg 89%
    23:00 +3°C° 0.2 mm 2 mps 664 mmHg 89%

    22 November, Thursday

    Time Temperature Precipitation Wind Pressure Humidity
    00:00 +4°C° 0.2 mm 1 mps 664 mmHg 90%
    01:00 +3°C° 0.1 mm 1 mps 664 mmHg 90%
    02:00 +3°C° 0.1 mm 1 mps 664 mmHg 90%
    03:00 +3°C° 0.1 mm 1 mps 663 mmHg 91%
    04:00 +3°C° 0 mm 1 mps 663 mmHg 91%
    05:00 +3°C° 0 mm 1 mps 664 mmHg 91%
    06:00 +3°C° 0 mm 1 mps 664 mmHg 91%
    07:00 +2°C° 0 mm 2 mps 664 mmHg 88%
    08:00 +3°C° 0 mm 2 mps 664 mmHg 85%
    09:00 +3°C° 0 mm 2 mps 665 mmHg 81%
    10:00 +4°C° 0 mm 2 mps 665 mmHg 80%
    11:00 +4°C° 0 mm 2 mps 664 mmHg 78%
    12:00 +5°C° 0 mm 2 mps 664 mmHg 76%
    13:00 +4°C° 0 mm 2 mps 664 mmHg 78%
    14:00 +4°C° 0 mm 2 mps 664 mmHg 80%
    15:00 +4°C° 0 mm 2 mps 664 mmHg 81%
    16:00 +3°C° 0 mm 2 mps 664 mmHg 83%
    17:00 +3°C° 0 mm 2 mps 664 mmHg 85%
    18:00 +3°C° 0 mm 1 mps 664 mmHg 87%
    19:00 +3°C° 0 mm 1 mps 664 mmHg 86%
    20:00 +3°C° 0 mm 1 mps 664 mmHg 85%
    21:00 +3°C° 0 mm 1 mps 664 mmHg 84%
    22:00 +3°C° 0 mm 1 mps 664 mmHg 84%
    23:00 +3°C° 0 mm 1 mps 664 mmHg 83%

    23 November, Friday

    Time Temperature Precipitation Wind Pressure Humidity
    00:00 +3°C° 0 mm 1 mps 664 mmHg 83%
    01:00 +3°C° 0 mm 1 mps 664 mmHg 82%
    02:00 +3°C° 0 mm 1 mps 664 mmHg 82%
    03:00 +3°C° 0 mm 1 mps 663 mmHg 82%
    04:00 +3°C° 0 mm 1 mps 663 mmHg 82%
    05:00 +3°C° 0 mm 1 mps 664 mmHg 82%
    06:00 +3°C° 0 mm 1 mps 664 mmHg 82%
    07:00 +3°C° 0 mm 1 mps 664 mmHg 79%
    08:00 +4°C° 0 mm 1 mps 664 mmHg 77%
    09:00 +5°C° 0 mm 1 mps 665 mmHg 74%
    10:00 +4°C° 0 mm 2 mps 665 mmHg 73%
    11:00 +5°C° 0 mm 2 mps 665 mmHg 73%
    12:00 +5°C° 0 mm 2 mps 665 mmHg 72%
    13:00 +5°C° 0.1 mm 2 mps 665 mmHg 75%
    14:00 +4°C° 0.1 mm 2 mps 665 mmHg 79%
    15:00 +4°C° 0.1 mm 2 mps 665 mmHg 82%
    16:00 +2°C° 0.1 mm 3 mps 666 mmHg 84%
    17:00 +2°C° 0.1 mm 3 mps 666 mmHg 86%
    18:00 +1°C° 0.1 mm 3 mps 667 mmHg 88%
    19:00 0°C° 0 mm 3 mps 668 mmHg 86%
    20:00 -1°C° 0 mm 4 mps 669 mmHg 85%
    21:00 -2°C° 0 mm 4 mps 669 mmHg 84%
    22:00 -1°C° 0 mm 3 mps 670 mmHg 84%
    23:00 -2°C° 0 mm 3 mps 670 mmHg 84%

    24 November, Saturday

    Time Temperature Precipitation Wind Pressure Humidity
    00:00 -2°C° 0 mm 3 mps 670 mmHg 84%
    01:00 -2°C° 0 mm 3 mps 671 mmHg 84%
    02:00 -2°C° 0 mm 2 mps 671 mmHg 84%
    03:00 -3°C° 0 mm 2 mps 671 mmHg 84%
    04:00 -3°C° 0 mm 2 mps 672 mmHg 84%
    05:00 -3°C° 0 mm 2 mps 672 mmHg 84%
    06:00 -1°C° 0 mm 1 mps 673 mmHg 84%
    07:00 -2°C° 0 mm 2 mps 673 mmHg 80%
    08:00 -1°C° 0 mm 2 mps 674 mmHg 76%
    09:00 +1°C° 0 mm 2 mps 675 mmHg 72%
    10:00 +1°C° 0 mm 3 mps 675 mmHg 70%
    11:00 +1°C° 0 mm 3 mps 675 mmHg 68%
    12:00 +1°C° 0 mm 4 mps 675 mmHg 65%
    13:00 +1°C° 0 mm 4 mps 675 mmHg 67%
    14:00 +1°C° 0 mm 4 mps 674 mmHg 69%
    15:00 +1°C° 0 mm 4 mps 674 mmHg 71%
    16:00 0°C° 0 mm 4 mps 674 mmHg 73%
    17:00 0°C° 0 mm 4 mps 674 mmHg 75%
    18:00 -1°C° 0 mm 4 mps 673 mmHg 78%
    19:00 -1°C° 0 mm 4 mps 673 mmHg 76%
    20:00 -1°C° 0 mm 4 mps 673 mmHg 74%
    21:00 0°C° 0 mm 3 mps 672 mmHg 72%
    22:00 0°C° 0 mm 3 mps 672 mmHg 70%
    23:00 0°C° 0 mm 3 mps 671 mmHg 69%
    Show more